Zurück zum Katalog

STARLINK-30343

AktivKommunikationVLEO
NORAD 57753·PAYLOAD·🇺🇸 United States

Gestartet Sep 1, 2023 von Cape Canaveral Space Force Station

Loading…

Nächste Überflüge (nächste 24 Stunden)

TLE

AktuellSource: CelesTrak SupGP

Epoche: Sep 14, 2026, 20:52 UTC

1 57753C 23131X   26257.86993056  .00014176  00000+0  51319-3 0  2572
2 57753  43.0031 191.4330 0001174 266.6435  53.9983 15.27587827    16

Verfolge STARLINK-30343 in Echtzeit mit AllMySat

Download on the App Store